CW5218 Weather Reports


time (UTC)temp
F
wind
direction
speed
knots
gust
knots
rain 1hr
in
rain 24hr
in
rain mn
in
humidity
%
barometer
mb
20260503223036 80 35 0.9 7.0 0.00 0.00 0.00 32 1009.4
20260503221535 80 291 2.6 7.0 0.00 0.00 0.00 30 1009.5
20260503220034 80 28 1.7 5.2 0.00 0.00 0.00 35 1009.6
20260503214530 80 130 2.6 7.0 0.00 0.00 0.00 36 1009.6
20260503213032 80 240 1.7 7.0 0.00 0.00 0.00 32 1009.8
20260503211531 79 223 1.7 6.1 0.00 0.00 0.00 34 1009.9
20260503210031 78 89 1.7 8.7 0.00 0.00 0.00 37 1010.1
20260503204534 78 142 1.7 8.7 0.00 0.00 0.00 35 1010.4
20260503203035 77 145 3.5 9.6 0.00 0.00 0.00 37 1010.5
20260503201535 77 269 2.6 7.0 0.00 0.00 0.00 41 1010.7
20260503200032 77 89 2.6 6.1 0.00 0.00 0.00 38 1010.9
20260503194534 76 223 2.6 7.0 0.00 0.00 0.00 37 1011.0
20260503193043 76 110 0.9 6.1 0.00 0.00 0.00 40 1011.1
20260503191536 76 98 1.7 7.0 0.00 0.00 0.00 42 1011.4
20260503190033 75 46 1.7 5.2 0.00 0.00 0.00 41 1011.7
20260503184534 75 264 0.9 6.1 0.00 0.00 0.00 43 1011.7
20260503183031 74 296 2.6 7.0 0.00 0.00 0.00 45 1012.0
20260503181535 73 129 2.6 7.0 0.00 0.00 0.00 43 1012.0
20260503180032 72 131 1.7 7.8 0.00 0.00 0.00 50 1012.1
20260503174536 72 121 0.9 6.1 0.00 0.00 0.00 46 1012.0
20260503173032 71 135 0.9 6.1 0.00 0.00 0.00 50 1012.2
20260503171532 70 331 0.9 5.2 0.00 0.00 0.00 52 1012.2
20260503081533 53 0 0.0 0.9 0.00 0.00 0.00 78 1012.8
20260503080210 53 1 0.0 0.9 0.00 0.00 0.00 78 1012.7
20260503071535 54 269 0.0 0.9 0.00 0.00 0.00 73 1012.8
20260503054537 58 0 0.0 0.9 0.00 0.00 0.00 66 1012.8
20260503053028 59 0 0.0 0.9 0.00 0.00 0.00 63 1012.8
20260503051531 59 152 0.0 0.9 0.00 0.00 0.00 62 1012.8
20260503050033 61 0 0.0 0.9 0.00 0.00 0.00 59 1012.7
20260503044536 62 0 0.0 1.7 0.00 0.00 0.00 57 1012.6
20260503043029 63 0 0.0 1.7 0.00 0.00 0.00 55 1012.4
20260503041530 64 46 0.0 1.7 0.00 0.00 0.00 53 1012.1
20260503040030 65 0 0.0 5.2 0.00 0.00 0.00 52 1011.9
20260503034530 66 0 0.0 3.5 0.00 0.00 0.00 52 1011.7
20260503033033 67 117 0.9 2.6 0.00 0.00 0.00 54 1011.6
20260503031532 68 0 0.9 3.5 0.00 0.00 0.00 53 1011.5
20260503030030 69 231 0.9 3.5 0.00 0.00 0.00 49 1011.2
20260503024528 72 0 0.9 2.6 0.00 0.00 0.00 44 1011.1
20260503023027 73 269 0.9 6.1 0.00 0.00 0.00 38 1011.0
20260503021532 74 269 0.9 4.3 0.00 0.00 0.00 39 1010.9
20260503020032 76 213 0.0 1.7 0.00 0.00 0.00 40 1010.9
20260503014532 75 46 0.9 6.1 0.00 0.00 0.00 36 1010.9
20260503013038 75 89 1.7 4.3 0.00 0.00 0.00 36 1011.1
20260503011535 74 113 1.7 7.0 0.00 0.00 0.00 40 1011.2
20260503010035 74 223 1.7 6.1 0.00 0.00 0.00 39 1011.1
20260503004532 74 193 1.7 7.8 0.00 0.00 0.00 42 1011.1
20260503003032 74 245 1.7 7.8 0.00 0.00 0.00 40 1011.3
20260503001529 74 0 1.7 7.0 0.00 0.00 0.00 40 1011.3
20260503000029 73 127 0.9 5.2 0.00 0.00 0.00 42 1011.3
20260502234530 72 178 1.7 10.4 0.00 0.00 0.00 43 1011.6
20260502233032 71 139 1.7 5.2 0.00 0.00 0.00 45 1011.8
20260502231532 71 117 0.9 5.2 0.00 0.00 0.00 47 1012.3
20260502230031 71 131 0.9 5.2 0.00 0.00 0.00 47 1012.1
20260502224529 71 108 0.9 4.3 0.00 0.00 0.00 46 1012.4